Location: Newark
(42.8270°N, 8.3618°W)
Time: 03:29:21
(UTC+00:00)

Hubble Space Telescope - Pass Details

Date: 27 September 2020
Orbit: 536 x 540 km, 28.5° (Epoch: 21 October)

Event Time Altitude Azimuth Distance (km) Brightness Sun altitude
Exits shadow 05:55:03 - 225° (SW) 2,564 3.8 -6.6°
Reaches altitude 10° 05:58:54 10° 186° (S) 1,775 3.3 -5.9°
Maximum altitude 05:59:39 10° 176° (S) 1,748 3.4 -5.8°
Drops below altitude 10° 06:00:24 10° 165° (SSE) 1,775 3.6 -5.6°
Sets 06:04:35 0° 124° (SE) 2,665 5.3 -4.9°
